Temperature
20 20 20 20 21 22 21 21 21 21 21 21 20 20 20 20 20 19 18 17 17 16 15 14 13 13 12 11 10 10 10 9 9 9 9 9 9 9 10 11 12 11 12
19 19 19 20 19 20 21 22 21 21 21 21 20 19 19 19 20 20 19 19 18 17 16 15 14 13 12 11 10 10 10 9 9 9 9 9 10 10 10 11 11 11 11
18 18 19 20 21 20 19 20 21 21 21 21 19 19 19 20 20 20 21 20 19 18 17 16 15 14 12 12 11 10 10 10 9 9 9 9 10 10 10 10 10 10 10
17 17 18 19 19 19 19 19 20 20 20 19 19 20 20 20 21 20 20 20 19 19 18 17 15 14 13 12 11 11 11 10 10 10 9 9 10 10 10 10 9 9 10
17 17 17 18 19 20 20 20 21 21 21 21 21 20 20 20 20 20 20 20 19 19 18 17 16 15 14 13 12 11 11 11 11 11 10 10 9 9 9 9 9 9 9
17 16 17 19 19 20 20 20 21 21 21 21 21 21 21 21 21 21 20 19 19 19 18 17 16 15 15 14 13 12 11 12 11 11 11 9 9 9 9 9 9 9 9
16 16 18 18 19 19 19 19 19 19 19 19 19 18 18 18 19 19 18 18 19 19 19 18 17 16 16 15 14 12 12 12 12 11 11 10 10 9 9 9 9 9 9
16 16 17 17 17 17 18 18 18 18 19 19 18 18 18 17 16 15 15 16 16 16 17 17 16 16 15 15 14 13 12 12 12 11 11 11 10 10 9 9 9 9 9
15 15 16 16 15 16 17 17 17 17 18 18 18 18 18 18 18 17 17 18 18 18 18 17 17 17 16 15 14 14 13 12 12 12 12 11 10 10 10 10 10 9 9
14 14 14 15 14 15 15 15 16 16 16 17 17 17 17 17 18 18 18 18 18 18 18 17 16 16 16 15 13 13 13 12 12 12 11 11 11 11 10 11 11 10 10
13 12 12 12 12 13 13 13 13 14 14 14 14 15 15 15 16 17 17 17 18 18 18 17 17 16 16 16 15 14 13 13 13 12 12 11 11 11 11 11 11 10 10
13 11 11 11 11 11 11 11 12 12 13 13 13 13 13 13 14 14 15 15 16 16 16 16 16 16 16 16 15 15 13 12 12 13 12 11 11 11 11 11 11 11 11
11 11 11 11 11 10 10 11 11 11 12 12 12 12 12 12 12 13 13 13 14 14 14 15 15 16 16 14 14 15 14 14 13 12 12 12 11 11 11 11 11 11 11
11 11 11 11 11 11 11 10 10 10 11 11 11 11 11 11 12 12 12 12 12 12 13 13 14 14 15 14 14 13 13 15 14 12 12 12 12 12 11 11 11 11 10
11 11 11 11 11 10 10 10 11 11 10 10 10 9 10 10 10 11 11 11 11 11 12 12 13 13 13 14 15 13 12 13 14 12 11 11 12 12 11 11 11 11 10
10 10 10 9 10 9 8 8 8 9 9 9 9 9 9 9 9 9 9 10 10 10 10 11 11 12 13 14 14 13 11 10 12 12 11 10 11 12 11 11 11 11 11
9 9 8 8 7 6 7 7 7 8 7 7 7 8 8 8 8 8 8 7 7 7 7 9 9 10 12 13 13 12 11 10 12 15 12 9 9 11 12 11 11 11 11
8 8 7 6 5 6 6 7 8 7 7 6 6 6 6 6 5 5 5 5 6 6 6 7 8 9 10 12 12 11 10 11 12 12 11 10 10 9 11 11 11 11 10
6 6 5 5 5 5 6 6 6 6 6 6 6 6 5 4 5 5 5 4 4 5 5 6 7 8 8 10 11 10 9 10 12 10 11 12 10 10 11 11 11 11 9
4 5 5 5 5 5 5 4 3 3 2 2 3 3 2 2 3 3 3 3 3 4 4 5 5 6 7 8 9 9 8 7 9 9 9 10 9 9 9 11 11 10 9
3 4 4 3 3 2 2 1 1 1 1 1 2 2 2 2 2 2 2 2 2 2 3 3 4 4 5 6 8 9 8 6 6 7 8 8 8 8 9 9 10 10 9
3 3 1 0 -0 -1 -1 -1 -1 -1 -1 -0 0 0 0 1 1 1 1 1 2 2 2 3 3 3 3 4 6 7 8 7 6 6 7 7 8 8 8 8 9 9 9
0 -0 -0 -1 -1 -2 -2 -2 -1 -1 -2 -1 -1 -1 -1 -1 -0 -0 0 1 1 1 2 1 1 2 2 3 4 5 6 7 6 6 6 7 7 8 8 8 9 9 8
-0 -0 -1 -1 -2 -2 -1 -1 -2 -2 -2 -3 -2 -2 -2 -1 -1 -1 -1 -0 0 0 0 0 0 1 1 1 2 3 4 6 6 7 6 6 7 7 7 6 6 8 7
-1 -1 -2 -3 -3 -2 -2 -3 -3 -3 -3 -3 -3 -3 -3 -2 -2 -2 -2 -2 -1 -1 -1 -1 -1 -1 -0 1 1 2 3 4 4 4 4 5 5 4 4 4 5 6 5
-3 -3 -3 -4 -4 -3 -3 -4 -4 -4 -5 -4 -4 -4 -4 -3 -3 -3 -3 -2 -2 -0 1 1 -0 -1 0 1 1 2 3 4 4 4 4 3 4 4 4 5 4 4 4
Wind_Speed
14 14 16 18 19 20 20 21 20 20 16 14 14 13 16 15 15 15 19 20 21 21 19 16 17 16 15 15 15 14 15 13 11 9 10 13 15 16 15 14 14 14 14
12 10 10 12 16 19 20 19 19 19 18 16 15 12 10 11 15 15 18 21 22 21 17 19 16 16 15 17 17 16 13 13 12 9 7 8 11 13 11 11 11 12 10
16 16 15 12 10 12 15 15 16 16 17 17 14 12 11 11 12 15 16 18 19 20 19 20 18 17 16 15 17 17 18 15 13 13 10 6 7 4 6 7 8 8 8
19 19 17 15 11 8 7 9 10 11 12 14 15 18 15 15 16 13 13 14 17 19 20 20 19 18 16 17 17 17 16 16 13 10 13 13 10 8 6 8 8 10 10
20 21 19 17 15 10 6 5 6 9 11 13 16 16 17 16 14 13 13 14 15 17 19 19 19 18 17 18 19 17 17 16 15 12 9 11 12 12 12 12 11 11 11
18 19 19 17 17 14 11 7 5 5 6 10 14 18 20 18 16 15 14 13 12 14 18 19 19 19 18 19 19 18 18 16 14 13 12 11 10 10 11 14 15 14 12
17 18 19 19 17 17 16 13 11 9 6 5 9 13 16 16 17 16 14 13 12 13 15 18 18 18 18 19 18 17 17 16 15 15 13 13 14 12 12 14 14 14 12
15 15 15 15 16 16 16 16 15 13 11 8 7 8 10 11 12 13 13 13 12 11 12 15 17 18 18 18 18 15 16 15 16 16 16 13 13 14 14 14 12 12 12
13 13 14 14 14 15 15 15 15 15 14 12 9 8 8 9 11 13 13 12 13 12 13 15 17 19 20 20 18 16 18 17 16 16 17 15 13 14 14 13 13 13 14
10 11 11 11 12 12 13 15 16 15 15 14 12 9 8 8 10 11 13 13 14 15 16 16 18 19 19 19 18 16 18 17 15 13 15 15 13 12 13 13 12 14 14
9 8 7 8 9 10 10 12 13 13 13 13 13 13 12 11 9 9 11 12 14 15 17 18 19 20 20 20 19 20 20 20 18 16 17 18 16 13 13 12 12 11 11
5 6 6 6 7 8 10 12 13 13 12 11 10 11 11 12 11 11 12 12 13 14 16 17 18 20 21 20 21 21 21 21 20 20 19 19 16 17 15 12 13 12 13
4 5 6 7 9 11 12 13 13 13 13 12 11 11 11 12 13 13 13 13 13 14 15 16 18 20 21 20 21 21 22 22 22 21 21 21 20 19 16 14 13 11 10
2 5 8 9 10 12 13 13 13 12 13 13 14 13 13 13 13 14 15 15 15 15 15 16 18 19 20 20 20 21 21 22 22 22 22 21 21 22 18 15 14 12 11
6 10 13 15 15 15 15 15 15 15 16 15 14 14 14 15 15 16 17 18 18 17 17 17 18 18 18 18 18 19 21 21 22 21 21 21 23 23 19 15 14 14 12
10 12 13 15 15 13 14 14 14 14 14 14 15 15 15 16 16 17 18 20 20 20 20 19 19 19 16 17 18 19 20 21 21 20 20 21 21 22 22 22 18 16 15
13 13 13 12 11 11 12 13 13 13 14 14 14 14 16 16 17 18 18 19 19 21 22 21 20 21 21 19 18 20 21 24 22 19 17 15 15 19 21 21 17 15 15
13 13 11 10 9 11 13 15 16 15 15 14 15 15 16 17 18 18 18 19 19 19 20 20 20 20 21 20 18 19 21 22 22 20 17 17 17 17 20 16 15 13 9
10 9 8 9 11 12 14 16 16 16 17 17 17 18 18 18 19 20 20 20 19 19 19 20 20 20 21 21 19 16 18 19 20 20 19 18 19 20 22 17 14 12 7
7 9 11 12 12 14 16 16 17 17 16 17 18 18 19 19 20 20 20 19 19 19 19 20 20 20 20 20 19 15 15 19 18 16 17 18 21 18 24 19 16 15 13
9 11 12 12 13 14 15 16 16 16 17 17 18 18 18 19 19 19 18 19 18 18 19 19 19 18 19 20 18 15 14 18 19 15 13 11 14 19 26 21 17 16 17
11 12 11 12 12 13 14 15 16 18 18 18 18 18 18 17 17 19 18 18 18 18 18 18 17 15 16 19 19 18 16 20 19 17 12 9 14 21 25 18 16 24 21
10 11 12 13 13 14 16 18 18 19 19 19 20 19 19 18 18 18 18 16 15 15 15 15 15 14 14 17 20 19 17 18 17 16 14 13 19 21 18 18 26 25 16
9 10 12 14 15 16 17 18 19 20 20 21 20 20 19 19 18 16 15 15 14 15 15 15 15 14 14 15 15 15 17 18 16 12 9 9 13 14 15 19 18 13 13
9 11 13 15 17 18 19 19 19 20 21 21 20 19 18 19 18 16 15 16 16 16 16 16 16 16 16 17 23 24 19 17 15 5 2 5 9 11 11 11 10 11 13
10 12 14 16 18 19 20 20 20 20 20 20 19 17 17 17 17 17 17 16 17 20 21 21 19 17 21 26 30 33 30 28 19 7 6 8 11 13 14 13 12 11 12
Wind_Direction
290 278 266 257 249 242 237 233 228 224 217 212 211 217 227 231 230 231 232 230 227 224 222 226 229 227 229 232 232 233 238 237 239 251 260 264 262 259 256 254 254 254 251
333 326 316 289 264 249 238 234 231 227 218 216 214 217 231 234 232 231 230 228 228 226 222 223 226 226 227 232 233 234 238 241 234 232 250 269 269 254 252 251 249 249 246
5 357 347 334 296 268 258 246 240 236 227 221 219 223 233 235 235 231 230 229 230 229 227 227 227 226 226 230 229 229 229 232 229 224 227 234 246 261 228 229 233 236 237
30 21 12 9 359 327 288 264 256 251 243 231 226 225 226 234 238 239 238 231 228 227 227 227 228 227 225 228 229 227 227 227 229 220 226 238 262 260 266 246 241 250 248
33 24 21 21 21 15 353 307 273 253 241 230 228 232 239 247 252 247 241 235 228 226 226 225 225 226 226 228 228 226 224 223 220 218 214 223 233 239 250 257 253 249 250
28 25 24 26 26 23 21 15 352 314 279 248 236 232 237 243 245 243 240 238 230 224 223 222 222 224 225 228 229 228 225 221 217 219 219 219 222 220 223 242 253 254 251
26 22 22 21 21 21 19 17 13 7 350 299 267 257 255 255 254 252 248 242 234 227 223 220 222 224 225 228 229 228 224 218 213 217 221 225 229 225 218 230 243 252 255
26 26 27 24 24 22 22 21 20 16 5 345 314 285 271 269 272 274 273 268 262 254 244 234 234 235 233 231 230 228 227 222 219 219 220 223 227 228 223 221 227 245 253
23 27 29 32 30 28 29 29 30 27 20 8 349 323 299 281 275 273 269 266 265 264 258 245 237 235 234 233 230 226 227 224 225 223 221 222 225 226 225 221 218 227 247
34 31 29 30 31 34 35 36 32 29 21 14 9 353 330 303 288 282 277 273 270 267 262 255 250 245 241 239 238 238 235 230 226 222 225 226 225 224 222 218 219 222 234
43 44 40 37 43 42 35 28 22 19 16 14 9 4 355 343 326 304 294 286 280 275 269 264 258 253 246 240 233 235 237 234 230 223 223 226 223 223 220 217 217 219 220
60 54 47 39 34 25 14 6 3 4 5 5 3 4 1 355 351 341 328 315 301 291 282 275 268 262 256 248 240 236 236 237 233 226 222 224 221 224 222 219 219 218 215
66 37 24 10 2 356 353 351 353 350 348 346 345 345 347 345 344 341 335 326 316 305 294 282 273 268 263 257 250 243 237 235 234 231 225 225 219 221 220 219 222 220 213
23 355 353 348 344 343 346 345 341 342 340 335 329 326 327 323 321 321 322 322 320 314 307 297 286 277 270 263 255 249 243 240 238 234 231 228 222 222 215 215 219 213 208
346 344 341 338 337 343 347 343 341 342 340 332 326 326 325 322 319 317 315 313 311 309 307 302 294 285 275 263 256 253 250 244 242 241 236 232 225 223 214 207 212 208 207
339 333 328 325 327 335 337 336 338 338 336 331 328 330 327 324 321 319 316 311 308 306 303 301 298 293 283 264 247 245 253 250 242 242 240 235 230 224 211 207 208 209 205
335 325 318 316 321 328 336 336 335 335 334 330 329 329 325 322 320 319 317 314 311 306 303 301 302 301 295 280 256 236 244 251 246 237 237 238 231 226 222 216 211 213 216
321 318 320 321 326 336 337 335 333 332 330 328 328 328 325 322 321 320 319 315 313 309 305 303 305 304 298 289 270 249 252 254 254 248 237 233 233 224 218 205 196 196 187
327 341 351 342 334 337 338 333 330 332 330 330 328 327 325 323 323 323 321 318 314 309 307 305 304 303 302 300 287 272 275 265 260 253 241 229 233 220 203 193 171 149 134
360 353 347 339 333 336 336 329 327 326 325 325 323 323 323 322 322 321 319 318 316 313 310 306 305 304 305 306 301 295 294 282 272 259 247 235 233 209 189 186 170 166 159
339 340 335 329 329 331 331 326 325 324 326 323 322 321 321 321 320 319 318 317 316 313 312 311 313 313 314 313 311 309 310 294 283 274 261 243 225 198 186 187 182 164 145
332 331 326 324 325 329 329 326 326 328 325 321 319 318 317 315 313 315 314 315 316 315 315 317 317 318 322 315 312 308 302 298 288 280 270 235 200 190 185 181 158 141 136
322 327 329 328 332 336 335 329 328 327 324 321 320 319 318 315 315 313 312 311 313 314 316 318 316 318 321 315 308 305 305 305 293 280 265 212 190 183 174 162 148 140 137
332 332 330 329 330 333 329 326 326 325 322 320 319 317 316 314 312 310 309 309 313 314 315 315 313 311 311 310 312 312 310 305 296 287 266 205 168 152 147 146 142 134 139
328 328 325 323 322 323 321 322 323 322 320 317 314 314 313 310 308 306 306 305 306 306 305 305 306 305 301 299 304 302 298 292 286 262 204 154 140 137 145 142 139 138 139
322 319 318 318 318 317 315 317 317 316 314 311 309 309 309 306 305 307 306 298 294 294 294 290 288 293 293 298 305 303 300 293 268 211 186 178 167 162 163 158 150 151 147
Height
1486 1485 1485 1484 1484 1484 1484 1485 1486 1487 1489 1490 1491 1493 1494 1495 1494 1494 1493 1493 1493 1493 1493 1493 1493 1493 1493 1494 1495 1495 1495 1494 1494 1494 1493 1493 1491 1488 1486 1485 1484 1482 1481
1483 1481 1479 1476 1475 1475 1476 1478 1479 1481 1482 1485 1486 1488 1489 1489 1488 1487 1486 1485 1485 1485 1484 1485 1486 1486 1487 1488 1490 1490 1491 1490 1491 1489 1489 1486 1485 1482 1479 1477 1476 1476 1475
1481 1477 1474 1471 1470 1469 1470 1473 1475 1477 1478 1479 1480 1480 1481 1480 1480 1479 1478 1478 1478 1478 1478 1478 1479 1479 1480 1479 1479 1480 1480 1481 1482 1482 1483 1482 1478 1476 1474 1472 1471 1471 1470
1485 1481 1475 1470 1467 1466 1466 1468 1471 1473 1475 1475 1474 1474 1474 1473 1474 1474 1473 1472 1472 1472 1472 1471 1472 1472 1472 1471 1471 1471 1472 1473 1474 1474 1473 1474 1475 1475 1470 1469 1466 1465 1465
1489 1484 1478 1473 1469 1466 1465 1465 1468 1470 1471 1471 1470 1470 1469 1469 1469 1467 1465 1464 1464 1464 1465 1465 1465 1464 1463 1462 1462 1462 1462 1462 1462 1463 1464 1465 1466 1466 1466 1462 1462 1461 1459
1490 1486 1481 1476 1473 1470 1467 1466 1466 1467 1466 1465 1464 1463 1462 1461 1460 1459 1458 1457 1456 1457 1457 1456 1456 1455 1453 1452 1451 1452 1453 1454 1453 1454 1454 1454 1454 1454 1454 1454 1454 1454 1452
1490 1485 1480 1477 1475 1472 1469 1467 1466 1464 1462 1460 1458 1457 1456 1455 1454 1453 1451 1450 1449 1448 1448 1448 1447 1446 1445 1445 1445 1445 1443 1443 1443 1444 1445 1444 1443 1444 1442 1442 1443 1444 1444
1490 1486 1482 1479 1476 1473 1470 1468 1465 1463 1461 1459 1457 1455 1453 1451 1449 1448 1447 1446 1445 1443 1442 1441 1441 1441 1440 1439 1438 1437 1435 1434 1433 1433 1434 1434 1434 1435 1434 1433 1434 1434 1434
1490 1487 1483 1479 1477 1474 1471 1468 1465 1463 1460 1457 1454 1452 1449 1447 1446 1444 1442 1440 1439 1437 1435 1434 1432 1430 1429 1429 1428 1425 1424 1422 1423 1422 1423 1422 1423 1424 1425 1425 1425 1426 1425
1489 1486 1484 1481 1478 1475 1472 1469 1466 1462 1458 1455 1453 1450 1447 1444 1441 1440 1437 1435 1433 1431 1428 1425 1423 1421 1419 1418 1420 1418 1416 1413 1411 1411 1414 1414 1414 1414 1414 1415 1416 1416 1416
1485 1484 1483 1481 1479 1475 1473 1469 1465 1461 1457 1454 1451 1449 1445 1441 1437 1435 1432 1429 1425 1422 1420 1418 1416 1413 1411 1409 1408 1408 1407 1404 1401 1401 1402 1403 1405 1405 1405 1405 1406 1406 1407
1484 1483 1481 1480 1477 1474 1471 1468 1464 1460 1456 1452 1450 1448 1445 1441 1435 1431 1427 1424 1420 1417 1414 1411 1407 1405 1402 1399 1396 1394 1395 1394 1391 1390 1390 1391 1394 1395 1396 1395 1395 1396 1397
1484 1484 1482 1479 1476 1474 1470 1466 1462 1459 1455 1450 1447 1444 1441 1438 1433 1429 1424 1420 1415 1411 1408 1404 1400 1397 1393 1390 1386 1383 1382 1382 1380 1380 1379 1378 1380 1382 1384 1385 1386 1386 1387
1485 1485 1482 1479 1475 1472 1468 1464 1460 1456 1451 1446 1444 1440 1435 1432 1428 1425 1420 1416 1411 1407 1403 1398 1393 1389 1385 1381 1376 1373 1371 1369 1367 1367 1367 1368 1368 1369 1371 1373 1375 1377 1378
1483 1481 1478 1475 1473 1470 1466 1462 1456 1451 1447 1442 1438 1434 1430 1426 1422 1418 1413 1409 1406 1401 1397 1393 1388 1381 1376 1372 1368 1365 1361 1358 1355 1355 1354 1355 1357 1359 1362 1362 1364 1366 1367
1478 1476 1475 1473 1470 1466 1461 1457 1452 1448 1443 1440 1436 1431 1426 1421 1416 1410 1405 1401 1397 1393 1389 1385 1381 1374 1368 1363 1359 1357 1354 1349 1344 1343 1342 1343 1346 1349 1351 1352 1351 1355 1357
1476 1475 1473 1470 1467 1462 1457 1452 1448 1444 1439 1437 1433 1427 1422 1416 1411 1406 1401 1395 1391 1386 1381 1376 1372 1367 1362 1357 1352 1347 1345 1339 1333 1329 1330 1332 1333 1337 1340 1342 1342 1345 1349
1474 1472 1469 1466 1462 1457 1453 1449 1445 1440 1436 1431 1427 1422 1417 1412 1406 1400 1394 1389 1384 1379 1374 1368 1363 1358 1353 1349 1345 1339 1335 1329 1323 1320 1318 1319 1321 1323 1326 1329 1330 1332 1336
1469 1467 1463 1460 1456 1453 1449 1445 1441 1437 1432 1428 1424 1418 1412 1405 1399 1394 1388 1382 1376 1370 1365 1360 1356 1351 1346 1342 1337 1330 1324 1318 1313 1311 1309 1305 1307 1309 1312 1316 1316 1318 1323
1463 1461 1458 1456 1453 1449 1445 1441 1437 1433 1429 1424 1419 1413 1406 1400 1394 1389 1383 1377 1371 1365 1359 1353 1349 1345 1339 1335 1329 1321 1316 1309 1306 1303 1299 1294 1296 1299 1302 1306 1305 1307 1310
1459 1455 1453 1451 1448 1444 1440 1437 1434 1430 1425 1419 1413 1407 1401 1395 1390 1385 1380 1374 1367 1360 1354 1349 1343 1338 1331 1326 1321 1314 1311 1305 1300 1295 1289 1286 1287 1291 1293 1297 1298 1299 1302
1455 1453 1451 1449 1446 1442 1437 1432 1429 1424 1419 1413 1407 1402 1397 1392 1386 1382 1376 1370 1364 1357 1351 1345 1337 1330 1325 1319 1314 1307 1304 1299 1293 1287 1282 1280 1281 1283 1286 1289 1291 1294 1299
1453 1450 1446 1443 1440 1437 1432 1426 1421 1416 1412 1407 1402 1397 1391 1387 1382 1377 1373 1367 1362 1356 1348 1341 1332 1322 1316 1312 1307 1300 1294 1290 1285 1279 1275 1274 1274 1275 1276 1279 1283 1286 1293
1447 1444 1440 1437 1434 1430 1427 1422 1417 1412 1407 1402 1397 1393 1387 1381 1377 1373 1370 1365 1358 1352 1345 1336 1329 1319 1313 1308 1302 1294 1287 1280 1277 1272 1269 1268 1267 1267 1268 1270 1274 1279 1286
1441 1439 1436 1433 1429 1423 1419 1417 1413 1408 1402 1397 1392 1387 1382 1377 1372 1367 1364 1359 1352 1348 1340 1333 1327 1319 1310 1303 1297 1289 1281 1274 1269 1265 1264 1261 1259 1258 1262 1264 1268 1274 1280
1437 1434 1431 1427 1422 1417 1413 1410 1407 1403 1397 1392 1387 1382 1377 1371 1366 1360 1355 1349 1345 1339 1334 1329 1323 1316 1308 1298 1290 1282 1274 1268 1263 1260 1259 1257 1253 1252 1255 1258 1263 1269 1275